Regional Weather Roundup
Issued by NWS

Home | Current Version | Previous Version | Graphics & Text | Print | Product List | Glossary On
Versions: 1 2 3 4 5 6 7 8 9 10 11 12 13 14 15 16 17 18 19 20 21 22 23 24 25 26 27
000
ASUS45 KBOU 231907
RWRCO

WEATHER ROUNDUP FOR COLORADO
NATIONAL WEATHER SERVICE DENVER/BOULDER CO
100 PM MDT TUE MAY 23 2017

NOTE: "FAIR" INDICATES FEW OR NO CLOUDS BELOW 12000 FEET WITH NO
SIGNIFICANT WEATHER AND/OR OBSTRUCTIONS TO VISIBILITY.

COZ001>005-013-030-031-232000-
...NORTHWEST COLORADO...

CITY           SKY/WX    TMP DP  RH WIND       PRES   REMARKS
CRAIG          FAIR      56  30  37 N3        30.28F
HAYDEN         PTSUNNY   50  32  50 SW10      30.28F
MEEKER         FAIR      58  28  32 E7        30.26F
RABBIT EARS PA CLOUDY    32  28  86 W7        30.35S WCI  26
STEAMBOAT SPGS PTSUNNY   48  33  55 SW8       30.28F
WALDEN           N/A     45  28  53 N14G24    30.28F
$$

COZ006>008-011-232000-
...WEST CENTRAL VALLEYS...

CITY           SKY/WX    TMP DP  RH WIND       PRES   REMARKS
GRAND JUNCTION FAIR      65  28  24 MISG      30.20F
MONTROSE       FAIR      59  22  24 NE5       30.25F
EAGLE          MOSUNNY   54  27  35 N7        30.28F
RIFLE          FAIR      63  21  20 VRB3      30.21F
DELTA          FAIR      67  23  18 SW8G21    30.21F
NUCLA          FAIR      64  12  13 N6G21     30.26F
$$

COZ017>023-064>068-232000-
...SOUTHWEST COLORADO...

CITY           SKY/WX    TMP DP  RH WIND       PRES   REMARKS
DURANGO        FAIR      67  11  11 SW8       30.13F
CORTEZ         FAIR      67  16  14 NW24G30   30.19F
PAGOSA SPRINGS FAIR      63   1   8 N8        30.19F
TELLURIDE      NOT AVBL
WOLF CREEK PAS FAIR      37  10  32 NW3       30.41F
$$

COZ009-010-012-014-032>034-037-058>063-232000-
...CENTRAL COLORADO...

CITY           SKY/WX    TMP DP  RH WIND       PRES   REMARKS
ASPEN          FAIR      49  23  36 N12G20    30.27F
BUENA VISTA    FAIR      54  18  24 N21G35    30.22F
COPPER MTN     PTSUNNY   32  25  74 NW18G25   30.36S WCI  20
BERTHOUD PASS  CLOUDY    21  10  63 N16G35    30.33S WCI   7
COTTONWOOD PAS FAIR      50  14  23 NW6       30.28F
GUNNISON       FAIR      55  13  18 NW12G18   30.22F
KREMMLING      PTSUNNY   55  32  41 W7G16     30.28F
LEADVILLE      PTSUNNY   37  21  52 N15G26    30.29F
MONARCH PASS   FAIR      36  10  35 N18G30    30.45F
SALIDA         FAIR      59  22  24 N9G17     30.27F
SUNLIGHT       PTSUNNY   34  19  55 CALM      30.41F
WILKERSON PASS PTSUNNY   34  23  64 NE6       30.33S WCI  29
$$

COZ069>075-232000-
...SAN LUIS VALLEY/SANGRE DE CRISTO MOUNTAINS...

CITY           SKY/WX    TMP DP  RH WIND       PRES   REMARKS
ALAMOSA        FAIR      59  20  22 N18G24    30.19F
DEL NORTE      FAIR      56  18  22 NW16      30.21F
LA VETA PASS   PTSUNNY   39  30  70 NW7       30.39F
SAGUACHE       FAIR      55  21  26 NW15G29   30.21F
$$

COZ035-036-038>040-232000-
...NORTHERN COLORADO FRONT RANGE...

CITY           SKY/WX    TMP DP  RH WIND       PRES   REMARKS
DENVER INTL AP PTSUNNY   57  33  40 N18G25    30.17S
DMNS CITY PARK   N/A     58  30  34 NE8G21    30.17S
AURORA         PTSUNNY   58  32  37 N13G22    30.18F
FRONT RANGE AP PTSUNNY   57  37  47 N20G30    30.18S
ERIE MUNI ARPT CLOUDY    59  28  31 NE8G20    30.17S
BOULDER MUN AP CLOUDY    59  28  31 CALM      30.16S
CENTENNIAL     PTSUNNY   54  30  40 N17       30.18F
BROOMFIELD     PTSUNNY   57  30  35 NW9       30.18F
FORT COLLINS   FAIR      60  31  33 N24G30    30.15F
LONGMONT       CLOUDY    61  30  30 N12G17    30.17F
$$

COZ041-046-047-076>085-087-088-232000-
...PIKES PEAK/PALMER DIVIDE AND SOUTHERN FOOTHILLS...

CITY           SKY/WX    TMP DP  RH WIND       PRES   REMARKS
COLO. SPRINGS  PTSUNNY   57  27  31 N12G24    30.18F
A. F. ACADEMY  PTSUNNY   52  27  37 N14G20    30.18F
SCHRIEVER AFB  PTSUNNY   53  25  33 N16G26    30.19F
CHEYENNE MTN   PTSUNNY   51  28  41 N10G20    30.14F
ELLICOTT       PTSUNNY  N/A N/A N/A N23       30.17F
FALCON         CLOUDY    51  25  36 N13G24    30.20F
FORT CARSON    FAIR      59  28  31 N13G23    30.15F
LIMON          CLOUDY    53  34  48 N23G31    30.16F
MONUMENT HILL  CLOUDY    46  32  57 N17G25    30.22F
CANON CITY     NOT AVBL
WALSENBURG     FAIR      59  36  41 NE6       30.18F
TRINIDAD       FAIR      58  31  35 N18G24    30.18F
$$

COZ042>045-048>051-090-091-232000-
...NORTHEAST COLORADO...

CITY           SKY/WX    TMP DP  RH WIND       PRES   REMARKS
GREELEY ARPT   PTSUNNY   58  37  45 N16       30.16F
AKRON          CLOUDY    53  33  46 N21       30.13F
BURLINGTON     CLOUDY    57  36  45 N18G29    30.09F
WRAY           CLOUDY    59  32  36 N21G32    30.09F
YUMA           CLOUDY    52  25  35 N15G22    30.11S
STERLING       CLOUDY    59  36  41 N21G26    30.11F
HOLYOKE        NOT AVBL
FORT MORGAN    CLOUDY    57  34  42 NW16G22   30.16S
$$

COZ086-089-092>099-232000-
...SOUTHEAST COLORADO...

CITY           SKY/WX    TMP DP  RH WIND       PRES   REMARKS
PUEBLO         CLOUDY    65  30  27 N18       30.14F
LA JUNTA       CLOUDY    63  32  31 N22G29    30.13F
LAMAR          CLOUDY    63  33  32 N20       30.08F
SPRINGFIELD      N/A     58  34  40 N20G26    30.10F
$$




USA.gov is the U.S. government's official web portal to all federal, state and local government web resources and services.